Hourly Data Report for August 06, 2013

All times are specified in Local Standard Time (LST). Add 1 hour to adjust for Daylight Saving Time where and when it is observed.

VICTORIA INTL A
BRITISH COLUMBIA

48°38'50.000" N
123°25'33.000" W
19.50 m
1018621
71799
YYJ

Download Data

Hourly Data (August 2013)
Hourly Data Report for August 6, 2013
Temp Definition
°C
Dew Point Temp Definition
°C
Rel Hum Definition
%
Wind Dir Definition
10's deg

Wind Spd Definition
km/h
Visibility Definition
km
Stn Press Definition
kPa
Hmdx Definition


Wind Chill Definition


Weather Definition


TIME
00:00 12.8 10.5 86 16 2 48.3 101.22     LegendNANA
01:00 12.7 10.6 87 12 4 48.3 101.23     Clear
02:00 12.2 10.3 88 12 4 48.3 101.24     LegendNANA
03:00 11.7 10.6 93 12 5 32.2 101.25     LegendNANA
04:00 11.6 10.4 92 13 7 32.2 101.26     Mainly Clear
05:00 10.8 10.4 97 15 1 32.2 101.29     LegendNANA
06:00 12.3 10.9 91 10 5 32.2 101.32     LegendNANA
07:00 13.5 11.4 87 13 7 32.2 101.38     Clear
08:00 15.2 11.2 77 10 7 48.3 101.39     LegendNANA
09:00 16.2 11.4 73 13 9 48.3 101.39     LegendNANA
10:00 16.1 11.1 72 12 14 48.3 101.39     Clear
11:00 17.5 11.8 69 13 13 48.3 101.38     LegendNANA
12:00 18.9 12.0 64 12 14 48.3 101.36     LegendNANA
13:00 20.2 12.3 60 13 13 48.3 101.33     Mainly Clear
14:00 20.1 12.2 60 12 17 48.3 101.30     LegendNANA
15:00 19.7 11.8 60 13 17 48.3 101.24     LegendNANA
16:00 20.1 12.0 59 12 17 48.3 101.18     Mainly Clear
17:00 19.5 11.9 61 10 21 48.3 101.13     LegendNANA
18:00 19.0 11.9 63 8 12 48.3 101.08     LegendNANA
19:00 18.1 11.5 65 11 4 48.3 101.09     Mainly Clear
20:00 15.7 11.5 76 7 3 48.3 101.12     LegendNANA
21:00 15.6 11.6 77 16 1 48.3 101.14     LegendNANA
22:00 13.4 11.0 85 11 4 48.3 101.14     Mainly Clear
23:00 13.0 10.7 86 9 8 48.3 101.16     LegendNANA

Notes on Data Quality.

Legend

  • E = Estimated
  • M = Missing
  • NA = Not Available
Date modified: